{"data":{"norad_id":41183,"epoch":"2026-09-20T01:21:28.135296Z","epoch_age_seconds":52688,"freshness":"FRESH","line1":"1 41183U 15081E   26263.05657564  .00000246  00000+0  88179-4 0  9997","line2":"2 41183  47.0035 273.1888 0001703 117.4394 242.6665 14.58975564571586","mean_motion":14.58975564,"eccentricity":0.0001703,"inclination_deg":47.0035,"raan_deg":273.1888,"arg_perigee_deg":117.4394,"mean_anomaly_deg":242.6665,"bstar":8.8179e-5,"rev_number":57158,"period_min":98.699391239427,"perigee_km":695.27892682839,"apogee_km":697.68854265064,"semimajor_km":7074.6207347395,"source":"CELESTRAK","updated_at":"2026-09-20T09:00:44.910519Z"}}